Temp
5 5 5 5 5 5 5 5 5 5 5 5 5 5 5 5 6 6 6 6 6 2 5 7 7 7 6 6 4 5 5 5 4 3 2 3 4 6 6 7 6 6 5 3 4 1 3 9 9 7 8 9 9 9
5 4 4 4 4 5 4 4 4 4 4 4 4 5 5 5 5 6 5 5 5 1 3 6 6 7 7 7 4 4 4 5 5 3 2 2 4 3 5 4 7 4 4 6 6 6 7 8 8 9 8 9 9 8
4 4 4 4 4 4 4 4 4 4 4 4 4 4 5 5 5 5 4 4 4 -1 1 4 5 8 8 7 8 2 4 6 4 4 1 1 3 4 2 3 5 6 7 3 5 7 8 8 8 9 9 8 9 9
4 4 4 4 4 4 4 4 4 4 4 4 4 4 4 4 4 4 4 4 4 1 0 3 8 8 9 8 8 7 6 6 5 3 -1 -1 2 4 3 4 4 5 5 5 5 6 7 8 8 8 9 9 9 9
4 4 4 4 4 4 4 4 4 4 4 4 4 4 4 3 4 4 4 4 4 3 2 1 5 7 8 8 8 8 7 5 1 -1 -2 -0 2 3 3 4 4 6 5 4 4 7 7 8 8 8 7 8 8 7
4 4 4 4 4 4 3 3 4 4 3 3 4 3 3 3 4 4 3 3 3 3 1 -0 5 6 8 9 8 8 6 4 0 0 -1 -0 4 2 0 3 7 7 7 8 7 8 6 6 6 7 7 6 6 6
4 4 4 3 3 3 3 3 3 3 3 3 3 3 3 3 3 3 3 3 3 3 0 -1 1 5 8 8 6 5 6 4 2 -0 -0 2 3 1 1 4 6 7 7 8 7 4 4 4 4 5 4 5 5 5
3 3 3 3 3 3 3 3 3 3 3 3 3 3 3 3 3 3 3 3 3 4 2 -2 1 2 7 3 1 4 1 1 0 1 1 2 3 2 2 5 6 8 7 5 4 4 4 4 4 5 5 5 3 3
3 3 3 3 3 3 3 3 3 3 3 3 3 3 3 3 3 3 3 3 3 3 -0 -0 0 1 4 3 3 2 3 1 2 1 2 3 2 3 5 6 7 4 4 4 3 3 4 3 3 3 3 2 2 2
3 3 3 3 3 3 3 3 3 3 3 2 3 2 -2 3 3 3 3 2 1 2 1 -0 3 3 3 3 3 3 2 3 2 3 4 3 4 7 6 5 4 4 4 3 2 2 2 2 2 2 2 1 1 1
2 2 2 2 2 2 2 2 3 2 2 2 2 1 3 3 2 1 -1 -1 -1 1 1 2 3 2 3 3 3 3 1 3 3 4 4 5 5 4 6 5 4 4 4 3 3 2 2 1 1 1 1 1 1 1
2 2 2 2 2 2 2 2 3 3 3 4 4 4 4 3 1 0 -2 1 2 4 4 3 2 3 3 2 3 2 3 2 3 4 4 5 3 5 5 5 4 4 3 2 2 1 1 1 0 0 -0 -0 0 0
2 2 2 2 2 2 2 2 2 2 3 4 4 1 2 -0 -2 -1 -1 1 1 3 4 2 2 3 2 2 3 2 2 2 6 3 5 3 5 5 5 5 4 4 2 1 1 1 1 1 0 -0 -1 -0 -1 -0
2 2 2 2 2 2 2 2 2 2 3 2 1 -1 -1 -2 1 3 3 3 3 2 3 2 3 3 3 3 2 3 4 4 3 3 5 4 5 5 5 4 3 2 1 -0 -0 0 -0 0 0 0 -1 -1 -1 -1
2 2 2 2 2 2 2 2 2 2 3 2 2 -1 -0 1 1 2 3 4 4 4 4 1 1 2 2 3 3 4 3 4 4 4 3 2 5 4 4 3 2 1 -1 -1 -1 -1 -2 -1 0 0 -0 -1 -1 -1
1 1 2 2 2 2 2 1 2 2 3 2 3 2 1 1 -1 1 1 2 4 4 4 3 2 1 1 4 4 4 4 2 4 3 2 3 4 3 2 2 1 -0 -1 -3 -2 -2 -2 -2 -0 0 -0 -1 -1 -2
2 3 3 2 2 2 1 2 2 1 1 2 0 1 0 -0 -0 1 1 1 4 2 1 2 1 4 3 3 5 3 2 2 2 2 2 4 3 2 1 1 -2 -1 -1 -1 -1 -1 -1 0 1 0 0 -0 -1 -1
2 3 3 2 1 1 1 1 1 1 2 1 0 -0 0 -0 0 -0 0 2 2 1 2 3 2 4 1 5 2 0 0 2 2 2 2 2 2 1 1 0 0 0 -1 0 0 -0 0 -1 -2 -0 -0 -0 -1 -1
1 1 2 2 1 1 0 1 1 1 1 1 1 -0 0 -0 0 0 -0 1 2 3 2 1 2 2 2 1 1 0 -0 -0 -0 -1 -1 -1 0 -0 -1 1 1 0 1 0 -0 -1 0 0 -0 -0 0 -0 -1 -1
2 1 1 1 1 1 2 1 4 2 2 1 1 0 1 1 1 -0 1 1 2 2 2 2 1 3 1 1 -0 -0 -0 -1 -1 -2 -3 -3 1 1 0 -0 -1 1 1 1 1 1 0 -0 0 -0 -0 -1 -2 -2
1 1 1 1 2 2 2 1 2 2 2 1 1 2 0 1 1 0 2 2 3 2 2 2 3 2 -0 -1 2 1 -0 -1 -2 -0 -2 -5 -3 0 -0 1 1 1 -1 -2 -4 -3 -1 -2 -0 -1 -2 -2 -2 -2
2 1 1 1 1 1 1 3 2 2 2 1 1 2 1 0 2 2 2 1 1 3 3 3 2 0 0 0 -1 1 1 0 0 0 0 0 -4 -4 -4 -1 -1 -4 -3 -2 -1 -2 -2 -1 -1 -3 -3 -3 -3 -3
0 1 1 1 0 0 -1 4 2 2 1 1 1 2 1 1 1 2 1 1 1 1 2 1 1 0 -0 -1 0 0 -0 -1 -2 -2 -1 -1 -0 0 -0 -0 -0 -3 -5 -2 -2 -2 -2 -3 -4 -4 -4 -4 -4 -4
1 0 -0 0 1 -1 1 0 2 2 1 1 1 1 2 1 3 2 2 0 -0 0 -1 -1 -1 -0 -1 -1 -1 -2 -2 -1 -1 -1 -0 -1 -2 -3 -2 -3 -3 -3 -3 -3 -3 -5 -5 -5 -5 -5 -6 -6 -6 -6
1 -0 -1 -1 -0 0 -0 -0 1 2 0 1 2 0 1 2 1 0 2 -0 -1 -2 -3 -3 -2 -3 -3 -3 -3 -2 -2 -2 -3 -3 -3 -4 -5 -5 -5 -4 -4 -4 -5 -6 -7 -7 -7 -7 -7 -7 -7 -7 -6 -6
1 0 -1 -1 -1 -1 0 -1 -1 -0 1 1 1 1 1 2 2 0 0 -1 -3 -3 -4 -4 -4 -3 -3 -3 -3 -4 -5 -5 -5 -5 -5 -5 -5 -6 -6 -6 -7 -7 -8 -8 -9 -9 -9 -9 -8 -8 -8 -7 -7 -7
0 0 1 2 3 2 1 1 2 1 -1 -1 -1 0 1 1 0 -0 -2 -3 -4 -2 -2 -2 -3 -5 -5 -5 -5 -5 -6 -6 -6 -7 -6 -6 -6 -7 -7 -9 -11 -9 -9 -9 -9 -9 -9 -9 -9 -9 -8 -8 -8 -7
0 1 -1 0 1 1 -1 -1 -1 -2 -1 1 0 0 0 0 0 -1 -2 -3 -3 -3 -4 -6 -6 -6 -6 -6 -7 -7 -7 -7 -7 -6 -7 -7 -7 -7 -7 -8 -9 -9 -10 -10 -10 -10 -10 -10 -10 -10 -9 -9 -8 -8
-0 1 1 -3 -1 -0 -1 -0 -0 1 -0 -0 -1 -1 -1 -1 -3 -3 -4 -4 -4 -5 -6 -6 -7 -7 -7 -7 -7 -7 -7 -8 -9 -12 -12 -11 -10 -9 -9 -9 -10 -10 -10 -11 -11 -11 -11 -11 -10 -10 -10 -10 -9 -8
-1 1 -1 -2 -3 -2 -1 -0 -1 -2 -2 -3 -3 -3 -2 -4 -4 -4 -4 -5 -6 -6 -6 -6 -7 -7 -7 -8 -8 -8 -8 -8 -8 -9 -11 -10 -10 -10 -10 -10 -10 -11 -11 -12 -12 -12 -12 -11 -11 -11 -11 -10 -10 -9
0 -0 -0 -0 -2 0 -1 -3 -3 -4 -4 -4 -5 -5 -4 -6 -6 -5 -6 -6 -6 -6 -6 -7 -7 -7 -7 -8 -9 -11 -10 -9 -9 -10 -10 -11 -11 -12 -12 -12 -12 -12 -12 -12 -12 -12 -13 -12 -12 -12 -11 -11 -10 -10
-0 -0 -1 -2 -3 -2 -3 -4 -4 -5 -5 -5 -6 -6 -7 -7 -8 -7 -6 -6 -7 -7 -7 -7 -7 -7 -8 -9 -9 -9 -10 -11 -11 -12 -12 -12 -12 -12 -12 -12 -13 -12 -13 -13 -13 -13 -13 -12 -12 -11 -11 -11 -10 -10
-1 -1 -1 -2 -3 -3 -5 -5 -5 -6 -7 -7 -8 -8 -8 -8 -7 -8 -7 -7 -7 -7 -7 -8 -8 -8 -8 -9 -9 -10 -11 -11 -12 -13 -12 -13 -12 -12 -12 -13 -13 -13 -13 -13 -13 -12 -12 -12 -12 -12 -12 -12 -12 -11
Height
671 677 682 688 693 698 703 708 714 719 725 730 735 738 739 743 746 748 754 756 757 763 762 759 758 761 764 765 771 771 774 770 774 783 791 784 778 767 766 762 764 768 768 777 771 787 773 732 732 740 734 724 722 719
679 684 688 693 699 704 709 716 721 726 732 736 739 742 745 748 751 753 757 759 759 762 764 761 760 759 761 761 768 771 773 771 770 779 784 788 780 782 772 773 758 771 765 758 757 746 737 731 731 725 723 719 715 713
687 691 696 702 706 710 716 722 727 731 735 738 741 745 749 751 754 756 759 761 762 766 765 762 759 755 756 756 760 775 769 765 769 772 784 785 781 772 783 773 761 752 746 759 748 733 729 726 721 718 714 711 706 702
695 699 703 708 711 718 723 727 730 734 737 741 746 749 752 754 756 758 760 762 765 770 777 765 753 752 752 752 755 757 760 763 766 770 784 787 782 767 771 763 759 752 749 742 737 726 725 717 714 709 705 701 698 693
702 707 711 715 720 725 729 731 735 737 740 746 750 753 754 757 760 761 762 762 763 769 772 766 755 745 745 748 750 752 755 760 768 778 784 783 769 769 762 758 746 739 739 745 735 722 719 710 705 705 703 699 695 692
710 714 718 721 725 730 733 736 738 742 746 749 750 752 756 758 759 759 759 764 764 766 771 775 752 745 743 745 746 748 751 755 762 770 775 767 758 768 772 753 724 728 727 725 721 715 714 711 706 703 697 695 691 687
716 719 723 727 730 732 736 739 742 746 749 751 753 754 756 758 758 761 765 766 766 768 771 776 765 745 743 742 744 747 747 751 756 763 766 759 757 763 760 746 716 724 721 717 715 717 711 708 704 699 695 689 685 681
720 724 728 730 735 737 739 742 745 748 750 753 755 755 756 758 763 765 765 766 767 768 768 781 768 757 743 750 755 745 753 752 754 756 755 753 752 753 749 725 720 716 717 718 718 716 712 706 700 695 690 684 679 673
727 730 733 736 738 740 742 744 747 750 752 754 756 758 761 764 764 765 765 766 767 771 773 772 771 767 746 749 747 748 747 759 747 753 748 748 749 745 727 722 719 723 721 719 716 712 706 703 696 690 684 679 673 665
730 733 735 737 740 742 745 748 750 753 755 758 761 763 766 763 763 765 766 767 768 767 767 769 757 757 754 754 753 751 749 747 750 739 735 740 733 723 724 725 724 721 720 719 717 710 704 699 695 687 681 675 668 660
734 737 739 742 744 747 749 752 755 757 759 760 761 762 762 763 764 764 772 774 769 767 761 756 754 758 752 755 753 751 753 743 744 731 733 727 722 727 721 722 721 720 719 717 715 712 707 701 694 685 677 671 663 655
739 741 744 746 749 751 753 755 757 758 759 760 760 760 762 763 766 771 776 763 759 751 750 752 752 752 751 750 747 748 746 744 737 729 730 723 731 721 721 721 720 719 717 716 713 709 703 698 691 684 678 670 663 654
743 745 748 750 751 753 754 756 757 758 758 758 758 761 763 768 779 777 779 761 760 748 746 749 752 749 748 748 747 747 745 741 720 731 718 728 721 719 719 719 718 717 716 714 711 706 702 695 688 682 675 669 664 656
745 747 749 750 752 753 755 756 758 760 760 760 763 773 772 775 763 752 751 748 747 747 745 745 744 746 743 743 743 740 730 724 728 728 716 723 718 718 717 717 716 715 714 712 709 704 700 694 687 681 675 669 664 658
745 747 749 751 752 754 755 757 759 761 760 760 759 771 763 753 750 747 745 745 743 741 741 743 742 741 741 738 736 731 730 726 720 714 721 721 715 716 716 715 715 714 712 709 706 702 698 693 687 680 675 670 664 659
744 747 748 750 752 754 756 758 760 761 759 758 754 754 752 753 755 749 748 748 741 740 738 737 741 744 741 729 727 721 719 728 717 718 721 717 716 716 716 715 714 712 708 706 702 699 695 692 687 681 675 671 665 660
744 744 745 748 751 754 756 759 760 761 760 755 755 746 749 750 751 747 745 744 740 743 749 741 747 732 729 728 717 719 727 725 722 721 718 715 715 715 714 713 711 709 705 702 699 695 692 689 685 680 675 670 666 661
744 744 746 748 750 753 756 758 759 757 752 748 751 747 743 742 743 742 739 738 741 742 740 738 736 729 739 719 726 726 722 717 716 714 713 714 712 712 711 710 708 705 703 700 696 693 690 687 684 679 675 671 668 663
744 744 747 748 750 754 756 756 755 752 744 742 739 737 737 736 732 731 732 732 733 734 736 737 735 731 725 719 719 718 718 716 716 713 710 709 710 710 709 707 705 702 700 698 694 692 690 687 683 679 675 672 669 665
745 746 748 751 752 753 751 750 746 744 740 735 731 733 732 730 727 727 727 728 729 732 730 727 725 714 716 712 712 711 710 709 710 713 713 709 707 706 705 704 701 699 697 695 693 691 688 684 682 679 676 672 669 665
747 748 751 752 752 751 747 744 741 737 733 732 727 727 728 722 723 724 721 720 723 720 719 713 708 706 706 707 706 707 707 708 710 709 708 709 703 703 701 699 698 696 693 690 688 686 685 682 679 677 675 672 669 665
744 747 749 751 751 748 744 737 736 730 732 728 727 724 725 723 717 714 711 715 714 706 704 702 701 702 703 704 703 704 704 704 704 705 704 702 702 701 699 695 694 693 690 688 685 683 682 680 678 675 673 670 667 662
743 746 747 747 748 744 741 732 734 730 734 729 722 721 721 716 709 704 712 705 701 695 695 698 700 700 701 702 702 701 702 704 704 705 702 699 698 696 694 692 691 690 688 687 684 682 680 678 676 674 672 668 665 661
743 744 743 741 739 740 733 735 730 728 725 724 722 720 713 709 702 703 705 703 705 702 704 704 704 704 704 704 705 705 705 703 701 698 696 693 691 691 691 691 690 689 687 684 681 680 678 676 675 673 669 666 663 659
740 740 740 737 733 733 733 731 727 722 724 717 714 716 707 701 707 705 696 702 708 708 710 710 710 711 712 709 705 702 700 699 698 697 696 695 694 692 691 690 688 687 684 682 680 678 676 674 671 669 666 662 659 655
730 726 730 726 726 728 723 725 723 720 714 713 708 703 702 701 701 700 699 706 709 710 710 710 709 707 706 704 702 702 702 701 699 698 696 696 694 693 691 689 688 687 685 684 681 677 673 670 667 664 661 657 654 651
719 716 712 710 707 709 713 710 706 710 714 714 708 703 700 696 698 700 705 707 708 708 707 707 706 706 706 705 704 703 702 701 700 699 698 696 694 693 692 691 689 687 684 681 678 676 672 667 663 660 656 652 649 646
707 702 709 706 706 705 712 711 711 713 705 697 700 700 699 697 695 702 703 705 705 705 706 705 706 706 705 704 704 703 701 700 699 698 696 694 693 692 690 687 685 682 679 677 674 671 668 664 659 655 651 646 641 639
700 695 698 708 706 704 704 702 701 694 694 697 701 698 696 693 695 697 700 701 701 702 703 704 704 704 704 703 703 702 701 699 698 698 697 693 688 686 685 681 678 675 673 669 666 665 661 658 653 649 644 640 634 630
693 691 697 700 705 702 695 691 692 693 693 694 695 696 694 693 694 695 697 698 699 700 701 702 702 702 702 702 701 700 700 699 697 696 694 690 686 682 678 675 672 670 667 664 659 655 652 649 645 641 636 632 628 623
682 684 688 689 692 686 687 688 689 691 692 693 691 693 692 692 692 693 694 695 697 699 699 700 700 700 700 700 699 699 696 696 694 692 691 687 682 679 675 672 668 665 661 657 654 650 645 641 637 632 627 623 619 616
679 681 684 689 690 687 687 690 690 691 690 691 691 689 689 691 694 691 692 694 695 696 696 697 697 698 698 697 697 696 693 691 689 687 684 680 676 672 669 665 661 657 654 650 646 642 637 633 628 624 619 614 609 606
678 680 682 686 689 689 691 694 694 693 691 691 689 688 688 690 690 690 690 691 692 692 693 694 695 695 694 693 692 691 689 686 684 681 677 674 671 667 663 659 655 651 646 642 637 633 629 625 620 616 612 607 602 596
Wind_Speed
33 32 31 30 30 29 28 27 25 23 21 18 15 14 14 11 12 14 12 11 5 2 4 5 6 3 3 1 1 2 4 3 2 1 3 3 3 2 3 4 5 4 4 4 3 2 8 8 12 5 10 15 11 11
32 32 33 32 31 30 29 27 25 24 21 17 16 14 13 11 10 10 6 6 7 3 3 6 8 10 6 3 3 1 2 2 2 3 2 2 2 2 6 8 3 5 5 5 5 6 10 13 14 16 11 16 15 7
32 32 32 31 30 28 26 26 25 21 20 17 15 13 12 10 8 9 7 5 6 3 4 1 5 11 12 14 13 4 2 2 3 3 2 3 3 1 2 4 6 6 7 5 9 16 16 14 14 13 12 14 16 16
28 28 27 26 26 25 24 23 21 20 18 15 13 11 8 6 5 5 3 6 5 3 1 5 6 3 3 10 15 17 10 7 3 3 2 2 2 3 3 5 9 8 8 7 14 17 13 17 16 16 18 18 19 15
26 26 25 24 24 22 22 21 20 18 15 13 11 9 7 5 3 4 1 1 3 2 1 4 16 16 16 17 16 16 10 4 2 2 1 3 2 1 4 6 12 4 9 5 12 16 14 16 10 9 13 14 12 15
25 24 24 24 23 21 19 18 17 15 13 10 9 7 5 4 4 3 3 4 2 3 1 2 6 6 13 8 7 4 6 4 3 4 3 3 5 2 2 4 13 6 9 12 16 16 12 15 15 16 14 15 19 19
23 23 21 20 20 19 17 16 14 12 11 10 7 5 3 3 4 3 1 3 4 5 2 3 4 4 10 2 1 1 6 3 4 3 2 3 3 3 3 12 29 17 19 16 11 13 14 12 16 17 17 18 18 16
21 20 19 17 16 15 15 15 14 12 9 6 3 2 3 4 3 2 1 7 6 2 1 0 4 3 1 2 0 2 1 1 1 3 2 3 1 3 4 10 11 10 16 14 10 9 12 15 14 15 16 16 18 18
18 17 16 16 15 15 15 14 11 9 7 7 8 10 5 1 2 3 6 6 4 2 1 2 2 3 3 2 2 2 2 0 3 3 3 3 2 5 10 10 11 11 8 11 14 13 13 15 18 18 19 18 16 18
15 14 14 14 14 14 13 12 10 8 8 10 5 2 2 2 6 7 3 1 1 2 2 2 2 2 2 1 2 3 1 2 2 5 3 4 4 6 4 6 6 5 8 9 13 15 18 16 17 20 19 17 16 17
13 14 14 13 12 12 12 12 10 11 10 2 1 1 3 6 2 1 0 2 2 2 3 3 3 1 1 3 2 3 2 2 2 3 3 2 1 3 3 5 5 6 6 6 8 11 14 14 16 17 18 17 16 16
14 14 13 12 11 11 11 11 11 6 2 1 1 5 5 2 2 2 2 2 3 3 3 3 4 4 2 3 2 2 2 1 4 2 2 2 2 2 4 4 5 5 5 7 11 12 15 15 14 13 13 13 14 18
12 12 11 9 8 9 10 10 12 2 1 2 3 2 1 1 2 3 3 3 2 1 2 1 2 2 1 1 2 1 3 4 1 1 2 1 1 3 1 2 5 5 5 9 12 15 18 17 22 15 13 17 19 16
9 9 9 7 7 8 8 7 11 3 2 0 2 2 3 3 3 4 3 1 2 2 3 2 2 3 3 3 2 3 4 2 3 3 2 2 1 2 1 2 4 6 7 8 10 11 14 15 15 20 19 19 17 11
8 8 9 8 7 7 6 7 9 3 3 1 2 3 4 4 2 2 2 2 3 3 3 3 2 3 3 3 3 3 2 3 3 2 1 3 2 3 3 4 5 5 5 7 9 8 10 15 14 16 21 20 18 17
11 9 10 7 8 8 8 8 5 2 3 2 3 2 3 2 4 2 2 2 3 3 3 1 2 1 3 2 3 5 1 2 0 1 2 2 1 1 3 4 5 5 5 5 9 10 12 11 12 17 18 18 19 15
13 3 11 10 10 9 9 4 2 1 3 3 3 3 3 2 4 3 3 3 2 2 1 2 2 6 2 2 3 2 1 2 1 2 4 2 0 2 3 5 4 7 6 9 10 14 13 17 19 14 10 17 21 19
2 5 11 13 17 12 5 3 2 3 5 4 2 4 3 3 3 3 3 3 1 2 1 3 2 2 3 4 4 2 0 1 3 4 4 5 3 3 3 5 8 12 11 11 17 17 11 14 6 7 12 15 16 18
6 6 14 20 13 5 3 3 4 3 5 3 3 3 3 3 3 3 3 3 5 4 1 1 4 3 4 3 1 2 2 2 3 3 2 2 0 3 8 8 12 11 10 12 14 9 15 17 15 18 19 16 11 14
3 9 15 14 7 3 4 3 5 3 3 3 1 2 3 4 4 3 4 4 3 2 4 4 5 7 4 4 3 3 3 2 1 2 2 2 4 5 6 9 8 11 11 15 16 14 15 13 16 20 20 18 13 14
9 8 11 10 3 5 3 2 3 3 3 3 2 1 3 1 2 3 4 4 5 4 4 5 7 7 2 1 1 2 2 2 1 3 3 3 5 8 11 12 14 14 7 6 3 7 13 10 17 15 16 17 17 19
3 13 5 8 2 3 3 7 3 2 1 3 2 2 3 3 4 4 3 3 3 7 6 8 6 2 1 2 0 2 2 3 6 9 10 10 2 3 3 9 9 3 7 9 10 5 11 17 15 15 19 21 23 23
12 8 3 6 3 3 5 3 2 2 2 3 1 2 3 2 3 2 2 3 4 4 2 2 2 2 1 2 4 5 2 5 4 6 10 10 14 16 12 12 13 8 3 10 16 17 16 15 16 18 20 20 20 20
6 5 3 3 4 4 1 2 2 2 3 3 2 4 3 3 2 2 3 2 3 6 7 7 4 3 3 5 6 5 13 16 12 12 15 9 2 3 9 11 13 16 17 17 11 12 14 15 19 20 20 19 18 17
4 5 3 5 4 3 4 3 4 3 4 5 4 4 3 0 2 3 6 2 3 5 4 4 5 5 4 6 7 12 18 8 5 5 12 14 11 11 11 14 16 16 14 13 13 17 18 19 19 19 19 18 18 19
7 7 9 6 4 4 5 4 5 6 3 3 5 3 1 1 4 5 2 2 1 1 1 1 1 5 6 5 5 4 8 12 11 4 8 14 12 8 5 5 4 9 18 19 18 18 20 19 18 20 19 21 21 21
6 7 5 4 3 3 2 2 2 2 3 4 3 1 2 4 3 2 3 2 1 2 5 7 7 4 3 6 9 11 10 9 8 7 8 12 12 12 11 5 2 16 24 24 25 22 21 22 21 21 22 22 22 22
6 4 6 5 3 2 3 2 3 4 4 1 1 3 3 3 0 1 2 7 5 1 3 9 8 6 6 6 8 11 12 12 11 10 13 9 10 12 13 16 20 21 22 21 22 24 24 24 25 25 25 24 25 26
3 2 3 3 1 3 4 5 5 3 2 2 2 2 2 1 2 2 6 8 6 6 7 6 5 5 5 5 5 6 9 10 8 6 5 6 9 15 20 23 24 22 21 24 25 24 25 26 28 28 29 28 29 29
4 4 3 5 6 6 4 4 2 3 2 3 1 2 1 1 4 6 6 7 6 5 5 4 3 3 0 3 7 10 10 11 10 6 4 9 15 30 26 21 18 22 23 24 27 29 27 25 26 26 25 24 24 25
3 3 2 4 4 4 2 2 1 2 2 3 4 3 3 2 4 6 9 9 8 7 6 5 4 3 4 3 4 4 8 16 11 16 18 18 23 28 28 26 25 26 25 23 25 27 28 28 26 26 25 24 25 26
4 5 3 3 2 2 2 2 3 3 2 2 3 2 2 1 3 3 10 10 10 9 8 5 4 4 3 7 12 17 16 15 18 20 26 27 26 27 29 29 28 23 26 27 27 27 28 26 26 26 27 28 27 28
2 2 2 1 0 1 1 3 2 4 2 3 4 3 3 3 4 2 8 9 4 5 3 1 5 9 10 10 11 14 17 18 24 26 23 25 26 28 27 25 27 28 28 28 27 24 25 26 24 24 27 29 31 31
Wind_Direction
125 126 129 132 133 133 134 134 134 132 131 130 128 123 125 120 87 102 66 56 50 93 316 30 17 29 348 42 125 313 22 335 34 109 152 235 259 280 317 345 336 297 301 284 305 322 281 10 338 334 295 297 296 291
125 127 127 129 130 131 132 135 136 136 136 135 130 126 122 121 108 82 84 60 56 84 252 318 288 277 261 245 115 146 209 340 223 66 17 354 325 316 272 283 306 270 189 272 249 256 280 293 276 277 280 289 285 272
123 123 125 128 129 130 133 135 135 135 132 127 122 121 122 120 115 90 78 77 62 43 319 308 255 286 238 236 236 142 274 199 23 129 162 235 247 15 258 260 282 265 278 269 299 292 285 292 291 286 285 284 287 282
122 123 125 126 128 131 135 136 133 132 128 123 122 120 117 113 107 117 65 114 105 91 53 283 332 331 312 206 210 210 217 264 221 120 146 202 201 212 245 264 279 266 309 272 280 287 294 283 285 288 290 292 294 290
121 123 126 128 130 132 133 131 131 128 126 129 132 129 123 124 127 131 58 8 160 100 277 287 306 288 265 253 222 211 212 188 142 55 134 229 226 237 245 262 263 237 250 254 271 286 284 289 309 334 309 302 304 308
126 127 128 130 131 132 131 128 124 127 132 131 124 123 128 120 107 55 43 76 165 149 102 299 307 292 292 257 213 208 198 183 146 150 220 242 202 134 262 261 269 273 286 290 290 298 312 309 304 303 303 310 301 295
128 130 131 132 132 130 129 128 126 125 125 124 126 130 121 113 103 52 125 159 154 154 54 320 306 293 1 353 350 168 226 209 155 193 206 221 220 221 233 263 274 291 286 295 328 350 321 329 313 314 303 299 304 304
131 132 133 132 135 134 132 129 127 127 123 125 129 122 117 131 120 143 132 153 150 277 173 330 273 328 348 259 250 217 225 84 304 200 271 209 226 202 256 257 275 294 337 320 309 305 292 295 301 307 307 305 302 295
137 136 135 134 133 131 127 128 129 128 120 114 108 109 108 205 178 163 165 183 212 290 258 165 226 275 360 304 238 335 137 231 219 197 212 148 210 222 246 276 324 352 335 325 335 321 319 325 314 315 314 307 293 292
133 133 133 131 130 133 136 138 136 129 130 135 128 136 358 121 145 141 126 157 157 259 226 231 239 261 41 14 291 359 200 223 245 225 159 194 238 256 345 297 298 320 4 2 334 332 327 318 322 316 315 311 303 296
137 140 140 141 141 144 151 154 149 142 136 169 194 121 123 165 198 212 215 141 210 246 211 234 192 261 8 223 238 203 266 228 254 237 156 239 165 247 17 40 11 351 331 324 322 316 319 314 313 314 318 314 311 313
137 143 145 146 153 161 168 168 159 142 156 216 117 156 152 197 357 89 235 251 215 250 160 175 212 191 241 218 239 197 239 183 248 110 213 200 262 151 54 7 336 311 324 340 331 323 326 322 319 313 317 313 323 322
147 147 153 160 168 179 180 177 175 170 313 271 214 60 105 240 23 170 234 258 246 233 246 220 285 214 236 241 246 267 235 232 133 213 208 158 190 93 23 313 304 331 353 333 325 327 329 329 332 329 326 326 329 331
150 158 164 165 169 173 173 182 192 249 324 255 132 287 166 220 239 209 262 187 254 186 258 241 195 199 204 203 221 239 234 302 254 226 105 205 183 123 354 338 345 338 332 322 323 328 332 333 333 333 338 336 332 329
186 184 182 186 184 185 191 181 179 203 280 217 199 238 216 235 294 264 278 321 296 320 322 325 282 149 210 236 210 247 270 249 237 65 206 221 120 65 357 354 334 318 312 317 317 316 325 328 337 333 335 334 336 337
172 166 186 193 190 176 168 158 157 245 299 262 246 246 267 6 285 339 332 285 303 301 302 288 237 318 250 234 223 233 257 274 182 194 265 351 89 42 348 335 315 296 284 284 295 295 307 314 333 327 326 344 340 339
160 220 188 186 179 173 165 142 107 281 232 239 255 211 196 227 223 234 200 233 293 20 249 296 286 231 312 258 252 190 72 277 287 337 302 315 125 342 316 316 297 297 301 304 302 315 302 312 331 328 336 340 345 337
216 184 183 170 160 145 164 186 215 230 236 233 215 238 224 211 236 246 227 243 153 200 177 231 303 260 233 254 280 288 308 280 234 220 206 238 255 278 286 288 289 301 300 305 321 313 334 322 322 325 324 339 339 344
348 215 180 175 163 142 163 218 227 252 235 224 231 229 205 227 221 206 202 228 228 217 219 265 241 225 225 244 212 278 278 229 252 259 231 236 48 287 286 293 309 306 308 319 315 318 329 332 330 331 327 335 340 331
101 164 183 180 170 192 212 240 206 246 259 236 236 249 214 222 217 209 216 210 159 194 215 214 219 243 241 268 222 220 235 223 130 1 300 315 325 311 303 302 286 313 315 323 320 325 321 321 330 331 337 337 337 329
159 180 185 184 228 239 256 260 233 228 255 242 260 4 259 259 235 217 239 196 217 211 225 222 247 253 218 256 76 7 36 62 279 254 245 277 277 299 289 303 318 310 285 281 264 299 310 295 318 339 347 340 330 323
187 166 158 193 252 266 248 234 232 260 248 251 298 219 248 248 251 243 209 186 226 240 236 253 252 235 212 196 171 162 228 262 287 283 288 294 307 297 280 294 292 276 283 290 299 303 317 331 336 350 342 334 332 324
157 166 188 200 233 234 261 284 251 232 250 256 263 237 253 248 232 148 246 218 228 226 225 54 105 232 257 244 243 261 341 8 1 335 314 302 304 298 298 307 321 311 311 331 337 327 324 349 354 347 340 335 331 326
182 192 207 223 218 245 193 252 240 254 251 229 238 243 243 223 238 215 231 242 36 49 41 28 25 25 26 25 19 9 342 321 302 282 287 279 268 311 356 347 343 334 325 318 348 5 351 342 334 331 328 324 317 310
217 211 195 218 218 218 212 211 211 228 235 220 227 265 265 202 232 234 246 110 53 55 48 43 41 32 353 314 303 299 305 341 334 331 352 24 7 351 338 331 322 323 1 16 358 344 331 326 322 318 312 309 304 305
214 198 190 203 203 192 209 214 208 212 217 217 233 249 334 144 236 240 80 107 99 90 82 100 316 312 311 307 326 15 18 2 345 339 356 352 346 339 328 330 344 349 359 347 335 323 314 313 312 310 307 306 304 301
222 209 193 223 225 179 233 264 267 240 229 236 242 308 244 238 247 105 147 141 157 84 1 343 360 6 349 9 6 356 359 2 353 340 353 348 350 357 358 20 323 333 333 332 329 321 310 306 306 307 303 299 296 294
225 224 188 188 194 191 208 208 216 229 232 221 94 203 234 222 51 113 199 140 144 80 49 97 58 31 31 12 33 35 22 11 360 338 332 318 328 326 319 314 320 323 323 322 320 318 311 307 304 303 301 298 299 296
226 230 137 213 160 212 215 205 217 214 147 129 213 230 248 27 120 99 112 126 125 113 93 78 57 59 54 46 34 6 360 354 356 330 321 314 318 316 315 309 304 307 317 315 314 311 305 303 300 299 297 294 292 291
214 162 197 189 175 216 222 197 205 144 179 163 159 296 267 294 110 137 145 136 122 126 146 160 160 132 101 334 319 318 332 330 315 305 304 313 312 311 307 307 314 318 317 313 309 308 307 306 307 304 300 298 296 294
160 147 184 205 236 232 241 98 131 168 186 209 218 220 250 225 137 151 151 152 162 179 184 167 181 220 254 297 342 331 315 314 313 329 323 318 313 315 314 313 312 309 307 308 307 304 301 299 298 296 292 292 292 289
158 183 165 200 259 154 192 194 221 215 230 220 258 245 319 326 262 154 179 177 193 201 201 214 250 282 313 310 309 312 306 317 326 322 320 315 312 314 314 311 309 309 308 304 299 296 293 292 296 298 297 295 296 296
115 112 84 49 289 265 8 45 310 290 269 230 244 213 211 171 204 161 183 195 179 129 131 259 298 301 306 309 314 315 319 317 317 321 319 318 314 314 314 314 312 308 304 300 297 298 300 297 297 302 303 301 298 295